Temperature
2 2 2 2 2 2 2 2 2 2 1 1 1 2 2 2 1 1 1 2 1 1 1 1 2 2 1 1 1 1 1 1 1 1 1 2 2 2 2 2 2 2 2
2 2 2 2 2 2 1 1 1 1 1 1 1 1 1 1 1 1 1 1 1 1 1 1 1 1 1 1 1 1 1 1 0 1 1 1 1 1 1 1 1 1 1
2 2 1 1 1 1 1 1 1 1 1 0 0 0 1 0 0 0 0 0 0 0 0 1 1 1 1 1 1 1 0 0 0 0 0 1 1 1 1 1 1 1 1
1 1 1 1 1 1 1 0 0 0 0 -0 -0 -0 -0 -0 -0 -0 -0 -0 -0 -0 -0 0 0 0 0 0 0 0 0 0 -0 -0 -0 -0 -0 -0 -0 -0 -0 0 0
1 1 0 0 0 -0 -0 -0 -0 -0 -0 -1 -1 -1 -1 -1 -1 -1 -1 -1 -0 -0 -0 -0 -0 -0 -0 -0 -0 -0 -0 -0 -0 -1 -1 -1 -1 -1 -1 -1 -1 -1 -1
0 0 -0 -0 -0 -1 -1 -1 -1 -1 -1 -1 -1 -1 -1 -1 -1 -1 -1 -1 -1 -1 -1 -1 -1 -1 -1 -1 -1 -1 -1 -1 -1 -1 -1 -1 -1 -1 -1 -1 -1 -1 -1
-0 -0 -0 -1 -1 -1 -1 -1 -1 -1 -2 -2 -2 -2 -2 -2 -2 -2 -2 -2 -1 -1 -1 -1 -1 -1 -1 -1 -1 -1 -1 -1 -1 -1 -1 -1 -1 -1 -1 -1 -1 -2 -2
-1 -1 -1 -1 -1 -1 -2 -2 -2 -2 -2 -2 -2 -2 -2 -2 -2 -2 -2 -2 -2 -2 -2 -2 -2 -2 -2 -2 -2 -1 -1 -1 -1 -1 -2 -2 -1 -1 -2 -2 -2 -2 -2
-1 -1 -1 -1 -2 -2 -2 -2 -2 -2 -2 -3 -3 -2 -2 -2 -2 -3 -2 -2 -2 -2 -2 -2 -2 -2 -2 -2 -2 -2 -2 -2 -2 -2 -2 -2 -2 -2 -2 -2 -2 -2 -2
-1 -1 -2 -2 -2 -2 -2 -2 -3 -3 -3 -3 -3 -3 -3 -3 -3 -3 -3 -3 -3 -3 -3 -3 -3 -3 -3 -3 -3 -2 -2 -2 -2 -2 -2 -2 -2 -2 -2 -2 -2 -2 -2
-2 -2 -2 -2 -2 -2 -3 -3 -3 -3 -3 -3 -3 -3 -3 -3 -3 -3 -3 -3 -3 -3 -3 -3 -3 -3 -3 -3 -3 -3 -3 -3 -3 -3 -2 -2 -2 -2 -2 -2 -2 -3 -3
-2 -2 -2 -2 -3 -3 -3 -3 -3 -3 -3 -3 -4 -3 -3 -3 -3 -4 -4 -4 -4 -4 -4 -4 -4 -4 -4 -4 -4 -3 -3 -3 -3 -3 -3 -3 -2 -2 -2 -2 -2 -2 -2
-2 -2 -2 -3 -3 -3 -3 -3 -3 -3 -4 -4 -4 -4 -4 -4 -4 -4 -4 -4 -4 -4 -4 -4 -4 -4 -4 -4 -4 -4 -4 -4 -3 -3 -3 -3 -3 -3 -3 -2 -2 -2 -2
-3 -3 -3 -3 -3 -3 -3 -3 -3 -4 -4 -4 -4 -4 -4 -4 -4 -4 -4 -4 -4 -4 -4 -4 -4 -4 -4 -4 -4 -4 -4 -4 -4 -4 -4 -4 -3 -3 -3 -3 -3 -2 -2
-3 -3 -3 -3 -3 -3 -3 -4 -4 -4 -4 -4 -4 -5 -5 -5 -4 -5 -5 -5 -5 -5 -4 -4 -4 -4 -4 -4 -4 -4 -4 -4 -4 -4 -4 -4 -4 -3 -3 -3 -3 -3 -3
-3 -3 -3 -3 -3 -4 -4 -4 -4 -4 -4 -5 -5 -5 -5 -5 -5 -5 -5 -5 -5 -5 -4 -4 -4 -4 -5 -5 -5 -5 -5 -5 -4 -4 -4 -4 -4 -4 -4 -3 -3 -3 -3
-4 -4 -4 -4 -4 -4 -4 -4 -4 -4 -5 -5 -5 -5 -5 -5 -5 -5 -5 -5 -5 -5 -5 -5 -5 -5 -5 -5 -5 -5 -5 -5 -5 -5 -4 -4 -4 -4 -4 -4 -3 -3 -3
-4 -4 -4 -4 -4 -4 -4 -4 -5 -5 -5 -5 -5 -5 -5 -5 -5 -5 -5 -5 -5 -5 -5 -5 -5 -5 -5 -5 -5 -5 -5 -5 -5 -5 -4 -4 -4 -4 -4 -4 -4 -4 -4
-4 -4 -4 -4 -4 -5 -5 -5 -5 -5 -5 -5 -5 -5 -5 -5 -5 -5 -5 -5 -5 -5 -5 -5 -5 -5 -5 -5 -5 -5 -5 -5 -5 -5 -4 -4 -4 -4 -4 -4 -4 -4 -4
-4 -5 -5 -5 -5 -5 -5 -5 -5 -6 -6 -5 -6 -6 -5 -5 -5 -5 -5 -5 -5 -5 -5 -5 -5 -5 -5 -5 -5 -5 -5 -5 -5 -5 -4 -4 -4 -4 -4 -4 -4 -4 -4
-5 -5 -5 -5 -5 -5 -5 -5 -6 -6 -6 -6 -6 -6 -6 -6 -6 -6 -6 -6 -6 -6 -5 -5 -5 -5 -5 -5 -5 -5 -5 -5 -5 -4 -4 -4 -4 -4 -4 -4 -4 -4 -4
-5 -5 -5 -5 -5 -5 -5 -6 -6 -6 -6 -6 -6 -6 -6 -6 -6 -6 -6 -6 -6 -6 -6 -5 -5 -5 -5 -5 -5 -5 -5 -4 -5 -4 -4 -4 -4 -4 -4 -4 -4 -4 -4
-5 -5 -6 -6 -6 -6 -6 -6 -6 -6 -6 -6 -6 -6 -6 -6 -6 -6 -6 -6 -6 -6 -6 -5 -5 -5 -5 -5 -5 -5 -4 -4 -4 -4 -4 -4 -4 -4 -4 -3 -3 -4 -3
-5 -6 -6 -6 -6 -6 -6 -6 -6 -6 -6 -6 -6 -6 -6 -6 -6 -6 -6 -6 -6 -6 -6 -5 -5 -5 -5 -5 -5 -4 -4 -4 -4 -4 -4 -4 -4 -4 -3 -3 -3 -4 -3
-6 -6 -6 -6 -6 -6 -6 -6 -6 -6 -6 -6 -6 -6 -6 -6 -6 -6 -6 -6 -6 -6 -5 -5 -5 -5 -5 -5 -4 -4 -4 -4 -4 -4 -4 -4 -4 -4 -3 -3 -3 -3 -3
-6 -6 -6 -6 -6 -6 -6 -6 -6 -6 -6 -6 -6 -6 -6 -6 -6 -6 -6 -6 -6 -6 -5 -5 -5 -5 -5 -4 -4 -4 -4 -4 -4 -4 -4 -4 -4 -4 -4 -4 -4 -4 -4
Wind_Speed
2 2 2 2 2 2 2 3 3 3 3 3 4 3 3 3 3 3 3 2 3 3 3 4 4 4 4 4 4 4 4 4 6 5 3 4 4 5 6 6 7 7 8
2 2 2 2 1 1 2 2 2 3 3 4 4 3 3 3 3 3 3 3 4 4 4 4 4 4 4 4 4 4 4 4 4 6 4 4 4 4 5 5 5 7 7
2 2 2 2 2 2 2 2 2 3 3 3 3 3 3 3 3 4 4 4 4 5 4 4 4 4 4 4 4 4 3 3 3 4 5 4 3 4 4 5 5 5 6
2 2 2 3 2 2 2 2 2 2 3 3 2 2 3 3 4 4 4 4 4 4 4 4 4 4 4 4 4 4 3 3 2 3 4 4 4 3 3 4 5 4 5
2 2 3 2 2 1 1 2 2 2 3 3 2 2 3 3 3 3 3 3 3 3 3 4 4 5 5 5 4 3 3 2 2 3 4 4 4 3 4 3 5 5 5
2 2 2 2 1 1 1 2 2 2 2 2 2 2 3 3 4 4 3 2 2 2 3 3 3 4 5 6 7 6 4 3 4 4 4 5 5 4 4 4 5 5 5
2 2 2 2 2 1 1 1 2 2 2 2 2 2 2 3 4 4 3 1 2 2 3 3 3 3 4 3 5 5 5 6 6 5 5 5 5 5 4 4 4 5 5
2 2 2 2 2 1 1 1 2 2 2 2 2 2 2 3 4 3 3 1 1 2 2 3 3 4 3 4 3 3 3 4 5 4 4 5 5 4 4 4 5 4 5
3 3 2 2 2 2 1 2 2 1 2 2 2 1 2 3 4 3 3 1 1 2 3 3 3 3 5 5 3 3 3 4 4 5 5 6 6 6 4 2 3 3 5
3 3 2 2 2 2 2 2 2 1 2 1 2 1 2 2 4 4 3 1 1 2 2 3 4 4 5 5 2 2 3 4 3 4 5 5 4 4 5 3 3 4 4
2 2 2 2 2 2 2 2 1 1 1 1 2 2 2 2 3 4 4 1 1 2 2 2 3 5 6 6 4 2 4 4 2 3 3 3 3 3 3 3 3 3 4
1 1 1 1 1 1 1 1 1 1 0 1 1 2 2 2 3 4 4 4 3 1 2 2 3 5 6 6 5 4 6 5 2 2 2 3 3 3 3 3 3 3 3
1 1 1 1 1 1 1 1 1 1 0 1 1 1 2 2 3 4 4 5 5 2 2 4 5 5 5 4 5 5 4 2 2 2 2 3 3 3 3 3 3 3 3
1 1 1 1 0 0 0 1 1 1 1 1 1 1 2 2 2 2 2 2 3 3 2 3 4 5 4 4 3 3 2 2 2 2 3 3 3 3 3 3 3 3 3
2 1 1 1 1 0 0 1 1 2 2 2 2 2 2 2 4 5 3 2 2 2 1 1 1 2 2 2 2 2 2 2 2 2 2 3 3 3 3 3 3 3 2
2 1 1 1 1 1 0 1 2 2 2 3 3 3 3 4 5 5 5 5 5 3 1 1 1 2 2 2 2 2 2 2 2 2 2 2 3 3 3 3 2 2 3
2 2 1 1 1 1 1 0 1 2 2 2 2 3 3 4 4 5 5 5 4 3 1 1 2 2 2 2 2 3 3 3 2 2 3 3 3 3 3 3 3 2 3
2 2 2 2 1 1 1 1 0 1 2 2 3 4 4 4 4 4 4 3 3 3 1 2 2 2 2 3 3 3 3 3 3 3 3 2 2 2 3 3 2 2 2
2 2 2 2 1 1 1 1 0 0 1 1 2 3 4 4 4 5 4 2 2 2 2 2 2 2 2 3 3 3 3 3 3 3 3 3 2 2 2 2 2 2 2
2 3 2 2 1 1 1 1 1 0 1 1 2 2 3 3 2 3 3 2 2 2 2 2 2 3 3 3 3 3 3 3 3 2 3 2 2 2 2 2 2 2 1
2 2 3 2 2 1 1 1 1 0 1 1 2 3 3 2 2 2 2 2 2 2 3 3 3 3 3 3 3 3 3 3 3 2 2 2 2 2 2 2 2 1 0
3 3 2 2 1 1 1 1 1 1 1 1 2 3 4 2 2 2 2 3 3 3 3 3 3 3 3 3 3 3 3 3 3 2 2 2 2 2 2 1 1 1 0
3 3 2 2 1 2 1 1 0 0 1 1 1 2 2 2 2 2 3 3 3 3 3 3 3 3 3 3 3 3 4 4 3 3 2 2 2 2 2 1 1 0 0
3 3 3 2 2 1 1 1 0 1 1 1 1 2 2 2 2 3 3 3 3 3 3 3 3 4 5 4 3 4 4 4 4 3 3 3 2 2 1 1 0 1 1
3 3 3 3 2 2 1 1 1 1 1 1 1 2 2 2 2 3 3 3 3 3 4 4 3 4 5 5 5 5 5 6 5 3 2 2 2 1 1 1 0 0 1
3 3 2 2 2 2 2 1 1 1 1 1 2 2 2 2 2 3 3 3 3 3 4 4 4 5 6 5 5 5 5 4 3 3 1 1 1 1 1 1 1 1 1
Wind_Direction
255 258 257 252 243 238 246 255 256 260 257 254 251 246 241 241 238 237 243 246 251 261 258 254 255 248 241 240 237 241 241 239 264 282 280 288 286 292 302 302 303 302 301
251 249 247 252 249 249 261 269 263 261 259 255 251 244 243 242 234 232 242 247 247 255 260 259 263 264 254 242 235 241 244 237 252 278 291 294 292 291 297 300 306 304 296
246 238 248 251 249 259 267 278 276 272 268 262 258 250 248 246 240 238 237 244 248 251 251 252 260 262 268 261 246 244 244 246 246 265 286 293 299 303 305 302 301 300 297
246 241 249 250 246 252 267 274 277 279 274 266 264 260 255 251 246 244 245 243 246 254 255 252 251 252 256 262 258 250 243 239 240 262 281 293 296 299 297 304 309 302 300
239 243 256 256 250 259 281 286 287 290 287 273 266 276 272 260 248 239 237 239 247 262 268 262 260 266 269 274 268 260 253 245 255 264 275 288 289 300 298 294 293 299 297
238 252 262 264 259 264 280 292 301 302 304 291 278 276 276 273 272 272 266 244 246 255 270 275 273 274 282 286 285 276 261 256 258 260 268 275 282 280 284 289 291 300 305
237 256 266 254 249 257 270 288 289 291 299 305 299 286 279 280 293 294 289 273 259 266 271 278 288 290 299 287 292 301 296 284 271 264 265 269 274 281 282 286 285 288 287
237 246 249 239 248 260 267 277 277 279 280 287 295 292 297 297 307 308 305 291 284 288 286 276 272 278 286 291 289 306 301 297 286 271 259 267 271 272 267 266 270 281 290
243 245 242 227 242 261 265 270 271 267 276 277 276 277 284 297 310 313 319 275 291 296 293 290 289 278 296 306 307 300 305 308 310 293 284 286 289 290 293 292 290 299 300
249 245 233 220 229 241 249 256 267 260 272 295 307 306 290 287 306 314 322 270 296 301 301 301 303 308 311 319 310 292 296 300 313 325 320 317 312 306 303 286 270 282 295
248 239 233 224 228 229 239 247 232 253 305 320 323 316 304 307 313 317 321 284 257 286 301 308 304 317 321 325 327 305 293 305 313 316 318 319 323 321 320 311 289 268 272
231 229 235 231 230 221 208 225 207 174 177 322 328 327 327 319 325 317 322 319 314 277 285 289 294 314 321 325 325 317 316 319 316 320 324 323 319 314 313 315 312 297 275
210 228 244 239 229 206 182 183 174 167 185 295 300 319 331 326 320 327 327 326 326 321 294 305 315 322 324 322 322 323 327 327 319 315 309 306 305 302 310 316 322 325 327
205 223 216 172 301 72 176 196 196 207 225 265 290 297 313 319 316 310 303 313 320 317 314 323 331 331 326 318 322 326 324 307 299 291 293 302 312 317 318 317 314 315 328
205 206 189 167 189 190 276 248 243 238 231 245 256 261 274 291 298 310 313 300 291 282 310 339 338 333 338 339 333 330 330 323 314 305 297 303 310 316 317 319 318 320 317
192 191 185 187 189 160 52 353 335 303 294 300 294 296 298 302 311 315 318 321 320 323 352 331 316 315 312 315 316 318 317 314 309 302 300 301 306 310 315 319 322 322 323
193 199 196 192 178 166 160 70 353 356 358 343 325 319 315 317 322 325 331 337 341 346 347 302 289 293 297 300 300 300 301 304 302 297 296 295 298 306 309 310 316 322 326
193 201 192 187 185 175 181 208 247 326 344 350 346 343 335 331 336 339 341 354 354 357 327 300 295 292 289 291 293 296 296 301 303 300 299 297 295 297 299 305 310 312 318
186 186 180 176 174 166 167 176 202 274 323 335 343 349 354 354 358 359 358 1 328 318 311 301 293 290 289 289 288 286 282 284 288 291 295 299 298 293 291 296 298 302 315
185 188 172 165 158 152 159 161 166 247 318 323 320 326 337 349 351 346 346 338 320 307 303 300 296 291 289 285 283 284 286 286 288 288 292 296 297 290 284 285 287 291 302
174 177 166 152 154 163 170 171 188 227 273 295 298 303 317 329 321 317 322 321 311 301 297 298 296 294 289 286 283 283 284 286 287 289 291 292 292 293 294 294 293 286 303
165 160 154 157 158 162 166 165 180 231 258 286 308 319 329 343 321 309 312 313 309 302 295 292 289 288 284 280 279 280 281 281 283 286 287 292 295 291 285 289 296 308 120
155 151 149 151 155 167 137 121 177 233 273 292 303 316 325 324 318 314 312 310 309 309 307 299 296 298 298 290 279 269 266 265 266 266 267 273 279 285 280 266 266 283 194
152 151 151 153 151 153 158 173 211 246 272 286 296 304 307 309 312 311 310 309 310 310 310 309 298 294 296 300 293 281 270 268 265 258 251 248 260 267 271 254 243 222 191
148 150 155 161 165 167 170 184 216 251 272 283 289 296 304 310 310 311 311 311 311 310 311 313 308 303 300 301 299 296 289 286 284 277 245 231 233 244 242 233 182 129 121
146 150 155 159 164 169 176 193 217 242 260 273 277 283 295 304 306 306 309 311 314 314 315 318 317 315 312 310 305 306 307 305 307 311 302 188 184 190 191 168 135 120 116
Height
1444 1445 1444 1444 1444 1444 1444 1444 1443 1443 1443 1443 1443 1442 1442 1442 1443 1443 1442 1442 1442 1443 1443 1444 1443 1444 1443 1444 1443 1443 1443 1442 1439 1437 1437 1436 1435 1434 1433 1432 1430 1429 1427
1441 1441 1441 1441 1441 1440 1440 1440 1439 1439 1439 1439 1438 1438 1438 1438 1438 1438 1438 1438 1438 1438 1439 1439 1439 1439 1439 1439 1438 1438 1437 1437 1436 1433 1432 1431 1431 1430 1428 1427 1426 1424 1423
1438 1437 1437 1437 1437 1436 1436 1436 1436 1435 1435 1434 1434 1433 1433 1433 1434 1434 1434 1434 1434 1434 1434 1434 1434 1435 1434 1434 1434 1433 1433 1432 1432 1430 1428 1427 1426 1425 1423 1422 1421 1420 1419
1434 1433 1433 1433 1433 1433 1432 1432 1432 1431 1431 1430 1430 1429 1429 1430 1430 1430 1430 1430 1430 1430 1430 1430 1430 1430 1430 1430 1429 1429 1428 1428 1428 1426 1424 1423 1422 1421 1420 1418 1416 1415 1414
1431 1430 1430 1430 1429 1429 1429 1429 1428 1428 1427 1427 1426 1426 1426 1426 1426 1426 1426 1426 1426 1426 1426 1426 1426 1426 1426 1426 1425 1425 1425 1424 1423 1422 1421 1420 1419 1418 1416 1414 1413 1411 1410
1427 1427 1427 1426 1426 1425 1425 1425 1425 1424 1424 1423 1422 1422 1423 1423 1423 1423 1423 1423 1423 1423 1422 1422 1422 1422 1422 1422 1422 1421 1421 1420 1419 1418 1418 1417 1415 1415 1413 1412 1410 1408 1405
1424 1424 1424 1423 1423 1422 1422 1422 1421 1421 1421 1421 1420 1420 1420 1420 1420 1420 1420 1420 1420 1420 1419 1419 1419 1419 1419 1418 1418 1417 1417 1417 1417 1416 1414 1413 1412 1411 1410 1408 1407 1405 1403
1421 1421 1420 1420 1420 1419 1419 1418 1419 1419 1418 1418 1417 1417 1417 1417 1417 1417 1417 1417 1416 1416 1416 1416 1416 1415 1415 1415 1414 1413 1413 1413 1413 1411 1411 1410 1409 1408 1407 1406 1404 1402 1400
1418 1418 1417 1417 1416 1416 1416 1416 1416 1416 1416 1415 1415 1415 1415 1415 1415 1414 1414 1413 1413 1413 1413 1413 1413 1412 1412 1412 1411 1410 1410 1409 1409 1408 1408 1407 1406 1405 1405 1403 1401 1399 1397
1415 1415 1415 1414 1414 1414 1414 1414 1413 1413 1413 1413 1413 1413 1413 1412 1412 1412 1412 1411 1411 1411 1411 1410 1410 1410 1409 1409 1408 1407 1407 1406 1406 1405 1404 1403 1403 1402 1401 1401 1399 1397 1395
1413 1412 1412 1412 1412 1412 1412 1411 1411 1411 1411 1411 1411 1411 1411 1410 1410 1410 1410 1409 1409 1408 1408 1407 1407 1407 1406 1406 1406 1405 1404 1404 1402 1401 1400 1400 1399 1399 1398 1397 1396 1395 1393
1410 1410 1410 1410 1410 1410 1410 1409 1409 1409 1409 1409 1409 1409 1408 1408 1408 1408 1408 1407 1407 1406 1405 1405 1405 1404 1404 1403 1403 1403 1402 1401 1400 1399 1398 1397 1396 1396 1395 1394 1393 1391 1390
1408 1408 1408 1408 1408 1408 1408 1407 1407 1407 1407 1407 1407 1406 1406 1406 1406 1406 1405 1405 1405 1404 1403 1403 1403 1402 1401 1401 1400 1400 1399 1398 1397 1396 1395 1395 1394 1393 1392 1391 1390 1388 1387
1406 1406 1406 1406 1406 1406 1406 1406 1406 1405 1405 1405 1405 1405 1404 1404 1404 1404 1403 1403 1403 1402 1402 1401 1400 1399 1399 1398 1398 1397 1397 1396 1396 1395 1394 1393 1392 1391 1390 1388 1387 1386 1384
1404 1404 1404 1404 1404 1405 1405 1405 1404 1404 1404 1404 1404 1404 1403 1402 1403 1403 1402 1401 1401 1400 1399 1399 1398 1397 1396 1395 1395 1395 1395 1394 1394 1393 1392 1391 1390 1389 1388 1387 1385 1384 1383
1401 1402 1402 1402 1403 1403 1403 1403 1403 1403 1403 1403 1403 1403 1402 1402 1401 1401 1400 1400 1399 1399 1398 1396 1395 1395 1394 1393 1393 1393 1393 1392 1392 1391 1390 1389 1388 1387 1386 1385 1384 1383 1381
1399 1400 1400 1401 1401 1401 1401 1401 1401 1401 1402 1402 1401 1401 1401 1400 1400 1399 1398 1398 1397 1396 1395 1394 1394 1393 1392 1392 1392 1391 1391 1390 1390 1389 1388 1387 1387 1386 1385 1383 1382 1381 1380
1397 1398 1398 1399 1400 1400 1400 1400 1400 1400 1400 1399 1400 1400 1399 1399 1398 1397 1397 1396 1395 1394 1394 1393 1392 1391 1391 1390 1390 1389 1389 1388 1388 1387 1386 1386 1385 1384 1383 1382 1381 1380 1380
1395 1396 1397 1398 1398 1399 1399 1399 1399 1399 1399 1398 1398 1398 1398 1397 1397 1396 1395 1395 1393 1393 1392 1391 1391 1390 1389 1389 1388 1387 1387 1386 1386 1385 1385 1384 1384 1383 1382 1381 1380 1380 1379
1394 1394 1395 1396 1397 1398 1398 1398 1398 1398 1398 1398 1397 1397 1397 1396 1395 1394 1394 1393 1392 1391 1391 1390 1389 1388 1387 1387 1386 1386 1385 1385 1384 1384 1383 1383 1382 1381 1381 1380 1380 1379 1379
1392 1393 1394 1395 1396 1397 1397 1397 1397 1397 1397 1397 1397 1396 1396 1395 1394 1393 1393 1392 1391 1390 1389 1388 1387 1387 1386 1385 1384 1384 1383 1383 1383 1382 1382 1381 1381 1380 1380 1379 1379 1379 1378
1390 1391 1392 1394 1395 1396 1396 1397 1397 1397 1397 1396 1396 1395 1395 1394 1393 1392 1391 1391 1390 1389 1388 1387 1386 1385 1384 1383 1383 1382 1382 1381 1381 1381 1381 1380 1380 1379 1379 1378 1378 1378 1378
1389 1390 1392 1393 1394 1395 1395 1396 1396 1396 1396 1395 1395 1394 1394 1393 1392 1391 1390 1390 1389 1387 1386 1385 1384 1383 1383 1382 1381 1381 1380 1380 1380 1380 1379 1379 1378 1378 1378 1378 1378 1377 1377
1388 1390 1391 1392 1393 1394 1394 1395 1395 1395 1395 1395 1394 1394 1393 1392 1391 1390 1390 1389 1387 1386 1385 1384 1383 1382 1381 1381 1380 1380 1379 1379 1379 1378 1378 1378 1377 1377 1377 1377 1377 1377 1377
1388 1389 1390 1391 1392 1393 1394 1394 1394 1394 1394 1394 1394 1393 1393 1392 1391 1390 1389 1388 1386 1385 1384 1383 1382 1381 1381 1380 1379 1378 1378 1377 1377 1377 1377 1377 1376 1376 1376 1376 1376 1376 1376
1387 1388 1390 1391 1392 1392 1393 1393 1394 1394 1394 1393 1393 1393 1392 1391 1390 1389 1388 1387 1386 1385 1383 1382 1381 1381 1380 1379 1378 1377 1377 1376 1376 1376 1376 1376 1376 1376 1376 1376 1376 1376 1376